Погода в Субанге

Индонезия     6°33′44″S   107°44′48″E
темп.,
°C
ветер,
м/с
пор.,
м/с
влажн.,
%
обл.,
%
осадки,
мм/ч
давл.,
гПа
погр.,
м
25 июня, сб
сб2501:00+23зюз1189100 0.0 100812
04:00+23юз119095 0.0 100812
07:00+24ю118536 0.1 100942
10:00+29св226690 0.0 1010753
13:00+31всв235950 0.1 10071322
16:00+28св248299 1.5 1007208
19:00+24всв1192100 2.9 100912
22:00+24ю229594 2.4 101135
26 июня, вс
вс2601:00+24юз229395 2.6 100932
04:00+24юз1191100 0.0 100819
07:00+24ю119091 0.3 101024
10:00+28ссв117648 1.6 1010310
13:00+29ссв1174100 7.2 1008620
16:00+25юв1188100 7.7 100813
19:00+23зюз2397100 17.3 101198
22:00+23сз0094100 1.8 101314
27 июня, пн
пн2701:00+23вюв0096100 2.5 101120
04:00+23всв1196100 0.0 101023
07:00+23юв129554 0.1 1012106
10:00+28в127227 0.0 1010680
13:00+31с226534 0.3 1007956
16:00+28ссв128299 6.1 1007104
19:00+25юв118999 9.9 100911
22:00+23юз229697 6.7 101131
28 июня, вт
вт2801:00+23ююз2293100 7.4 100925
04:00+22ю119148 0.1 100812
07:00+24ююв118850 0.1 101040
10:00+29ссв11695 0.0 1010650
13:00+30ссз116791 0.6 1007983
16:00+28зсз238280 2.3 1006212
19:00+24з229134 4.3 100818
22:00+23ююз119272 0.1 100914
29 июня, ср
ср2901:00+23ююз11939 0.2 100812
04:00+22ююв229235 0.0 100819
07:00+22ю228916 0.0 100955
10:00+28сз11696 0.0 1009619
13:00+30с22589 0.0 10071359
16:00+30ссз216345 0.1 10061040
19:00+24св11903 0.4 100819
22:00+23ююв229112 0.3 101016